Time,TemperatureF,DewpointF,PressureIn,WindDirection,WindDirectionDegrees,WindSpeedMPH,WindSpeedGustMPH,Humidity,HourlyPrecipIn,Conditions,Clouds,dailyrainin,SoftwareType,DateUTC
2013-01-26 00:09:00,33.8,24.0,29.93,NE,45,0.0,-999.0,67,-99.99,,,0.00,Acu-Link.com,2013-01-26 06:09:00,
2013-01-26 00:25:00,32.9,23.5,29.93,WNW,292,0.0,-999.0,68,-99.99,,,0.00,Acu-Link.com,2013-01-26 06:25:00,
2013-01-26 00:40:00,31.5,23.2,29.93,West,270,0.0,-999.0,71,-99.99,,,0.00,Acu-Link.com,2013-01-26 06:40:00,
2013-01-26 00:55:00,30.4,23.4,29.93,WNW,292,0.0,-999.0,75,-99.99,,,0.00,Acu-Link.com,2013-01-26 06:55:00,
2013-01-26 01:11:00,29.8,23.5,29.94,NW,315,0.0,-999.0,77,-99.99,,,0.00,Acu-Link.com,2013-01-26 07:11:00,
2013-01-26 01:26:00,29.3,23.3,29.94,WNW,292,0.0,-999.0,78,-99.99,,,0.00,Acu-Link.com,2013-01-26 07:26:00,
2013-01-26 01:41:00,29.1,23.1,29.95,West,270,0.0,-999.0,78,-99.99,,,0.00,Acu-Link.com,2013-01-26 07:41:00,
2013-01-26 01:57:00,28.8,22.8,29.95,WNW,292,0.0,-999.0,78,-99.99,,,0.00,Acu-Link.com,2013-01-26 07:57:00,
2013-01-26 02:12:00,28.6,23.2,29.94,West,270,0.0,-999.0,80,-99.99,,,0.00,Acu-Link.com,2013-01-26 08:12:00,
2013-01-26 02:27:00,29.3,23.6,29.95,West,270,0.0,-999.0,79,-99.99,,,0.00,Acu-Link.com,2013-01-26 08:27:00,
2013-01-26 02:42:00,30.0,24.0,29.95,NNW,337,0.0,-999.0,78,-99.99,,,0.00,Acu-Link.com,2013-01-26 08:42:00,
2013-01-26 02:58:00,30.4,24.4,29.96,West,270,0.0,-999.0,78,-99.99,,,0.00,Acu-Link.com,2013-01-26 08:58:00,
2013-01-26 03:16:00,30.4,24.4,29.96,WSW,247,2.7,-999.0,78,-99.99,,,0.00,Acu-Link.com,2013-01-26 09:16:00,
2013-01-26 03:31:00,31.1,25.1,29.95,WNW,292,1.7,-999.0,78,-99.99,,,0.00,Acu-Link.com,2013-01-26 09:31:00,
2013-01-26 03:47:00,31.8,25.4,29.96,WSW,247,2.2,-999.0,77,-99.99,,,0.00,Acu-Link.com,2013-01-26 09:47:00,
2013-01-26 04:02:00,31.3,24.9,29.96,North,0,0.0,-999.0,77,-99.99,,,0.00,Acu-Link.com,2013-01-26 10:02:00,
2013-01-26 04:17:00,30.6,24.6,29.95,SW,225,1.1,-999.0,78,-99.99,,,0.00,Acu-Link.com,2013-01-26 10:17:00,
2013-01-26 04:32:00,30.2,24.2,29.96,WNW,292,0.0,-999.0,78,-99.99,,,0.00,Acu-Link.com,2013-01-26 10:32:00,
2013-01-26 04:48:00,29.8,24.4,29.97,West,270,0.0,-999.0,80,-99.99,,,0.00,Acu-Link.com,2013-01-26 10:48:00,
2013-01-26 05:03:00,29.5,24.4,29.98,WSW,247,2.7,-999.0,81,-99.99,,,0.00,Acu-Link.com,2013-01-26 11:03:00,
2013-01-26 05:18:00,29.3,24.5,29.99,NNW,337,2.7,-999.0,82,-99.99,,,0.00,Acu-Link.com,2013-01-26 11:18:00,
2013-01-26 05:33:00,28.8,23.4,30.00,West,270,1.7,-999.0,80,-99.99,,,0.00,Acu-Link.com,2013-01-26 11:33:00,
2013-01-26 05:49:00,28.4,22.1,30.01,WSW,247,1.7,-999.0,77,-99.99,,,0.00,Acu-Link.com,2013-01-26 11:49:00,
2013-01-26 06:04:00,27.9,20.4,30.02,WNW,292,0.0,-999.0,73,-99.99,,,0.00,Acu-Link.com,2013-01-26 12:04:00,
2013-01-26 06:19:00,27.1,19.9,30.03,WNW,292,1.1,-999.0,74,-99.99,,,0.00,Acu-Link.com,2013-01-26 12:19:00,
2013-01-26 06:35:00,26.8,19.3,30.03,West,270,0.0,-999.0,73,-99.99,,,0.00,Acu-Link.com,2013-01-26 12:35:00,
2013-01-26 06:50:00,26.4,18.9,30.04,NNE,22,2.2,-999.0,73,-99.99,,,0.00,Acu-Link.com,2013-01-26 12:50:00,
2013-01-26 07:05:00,26.2,19.1,30.03,NNW,337,2.2,-999.0,74,-99.99,,,0.00,Acu-Link.com,2013-01-26 13:05:00,
2013-01-26 07:21:00,26.1,19.6,30.04,WNW,292,0.0,-999.0,76,-99.99,,,0.00,Acu-Link.com,2013-01-26 13:21:00,
2013-01-26 07:36:00,26.1,19.9,30.05,NW,315,0.0,-999.0,77,-99.99,,,0.00,Acu-Link.com,2013-01-26 13:36:00,
2013-01-26 07:51:00,26.1,20.2,30.05,North,0,0.0,-999.0,78,-99.99,,,0.00,Acu-Link.com,2013-01-26 13:51:00,
2013-01-26 08:07:00,26.4,19.9,30.05,ESE,112,0.0,-999.0,76,-99.99,,,0.00,Acu-Link.com,2013-01-26 14:07:00,
2013-01-26 08:22:00,27.0,19.2,30.06,West,270,2.2,-999.0,72,-99.99,,,0.00,Acu-Link.com,2013-01-26 14:22:00,
2013-01-26 08:37:00,27.7,19.9,30.07,ESE,112,1.1,-999.0,72,-99.99,,,0.00,Acu-Link.com,2013-01-26 14:37:00,
2013-01-26 08:52:00,28.0,19.8,30.08,ESE,112,2.7,-999.0,71,-99.99,,,0.00,Acu-Link.com,2013-01-26 14:52:00,
2013-01-26 09:08:00,27.3,18.2,30.08,ESE,112,2.7,-999.0,68,-99.99,,,0.00,Acu-Link.com,2013-01-26 15:08:00,
2013-01-26 09:23:00,27.5,17.7,30.09,East,90,3.7,-999.0,66,-99.99,,,0.00,Acu-Link.com,2013-01-26 15:23:00,
2013-01-26 09:38:00,27.7,17.8,30.09,SE,135,2.2,-999.0,66,-99.99,,,0.00,Acu-Link.com,2013-01-26 15:38:00,
2013-01-26 09:54:00,28.4,17.4,30.09,NE,45,3.2,-999.0,63,-99.99,,,0.00,Acu-Link.com,2013-01-26 15:54:00,
2013-01-26 10:09:00,28.4,16.7,30.09,East,90,1.7,-999.0,61,-99.99,,,0.00,Acu-Link.com,2013-01-26 16:09:00,
2013-01-26 10:24:00,29.3,17.5,30.09,NE,45,1.1,-999.0,61,-99.99,,,0.00,Acu-Link.com,2013-01-26 16:24:00,
2013-01-26 10:40:00,31.6,18.9,30.09,ESE,112,2.2,-999.0,59,-99.99,,,0.00,Acu-Link.com,2013-01-26 16:40:00,
2013-01-26 10:55:00,32.2,19.9,30.10,NNW,337,2.2,-999.0,60,-99.99,,,0.00,Acu-Link.com,2013-01-26 16:55:00,
2013-01-26 11:10:00,31.8,18.7,30.09,NW,315,1.7,-999.0,58,-99.99,,,0.00,Acu-Link.com,2013-01-26 17:10:00,
2013-01-26 11:25:00,33.4,20.6,30.09,ESE,112,3.2,-999.0,59,-99.99,,,0.00,Acu-Link.com,2013-01-26 17:25:00,
2013-01-26 11:41:00,33.8,18.5,30.09,NNW,337,3.2,-999.0,53,-99.99,,,0.00,Acu-Link.com,2013-01-26 17:41:00,
2013-01-26 11:56:00,33.8,18.9,30.08,ENE,67,0.0,-999.0,54,-99.99,,,0.00,Acu-Link.com,2013-01-26 17:56:00,
2013-01-26 12:11:00,36.0,20.1,30.07,SE,135,1.7,-999.0,52,-99.99,,,0.00,Acu-Link.com,2013-01-26 18:11:00,
2013-01-26 12:27:00,37.2,18.9,30.07,SE,135,3.2,-999.0,47,-99.99,,,0.00,Acu-Link.com,2013-01-26 18:27:00,
2013-01-26 12:42:00,38.1,19.2,30.06,NNE,22,2.2,-999.0,46,-99.99,,,0.00,Acu-Link.com,2013-01-26 18:42:00,
2013-01-26 12:57:00,37.4,18.5,30.05,SE,135,1.7,-999.0,46,-99.99,,,0.00,Acu-Link.com,2013-01-26 18:57:00,
2013-01-26 13:13:00,36.3,18.5,30.04,SE,135,2.7,-999.0,48,-99.99,,,0.00,Acu-Link.com,2013-01-26 19:13:00,
2013-01-26 13:28:00,37.2,18.9,30.03,ESE,112,2.7,-999.0,47,-99.99,,,0.00,Acu-Link.com,2013-01-26 19:28:00,
2013-01-26 13:43:00,37.0,18.7,30.02,East,90,4.2,-999.0,47,-99.99,,,0.00,Acu-Link.com,2013-01-26 19:43:00,
2013-01-26 13:58:00,38.5,19.5,30.01,SSE,157,2.7,-999.0,46,-99.99,,,0.00,Acu-Link.com,2013-01-26 19:58:00,
2013-01-26 14:14:00,40.5,21.4,30.01,South,180,3.7,-999.0,46,-99.99,,,0.00,Acu-Link.com,2013-01-26 20:14:00,
2013-01-26 14:29:00,39.7,20.1,30.02,SSE,157,6.8,-999.0,45,-99.99,,,0.00,Acu-Link.com,2013-01-26 20:29:00,
2013-01-26 14:44:00,39.9,19.8,30.01,SSW,202,1.1,-999.0,44,-99.99,,,0.00,Acu-Link.com,2013-01-26 20:44:00,
2013-01-26 15:00:00,39.6,20.5,30.01,ESE,112,1.1,-999.0,46,-99.99,,,0.00,Acu-Link.com,2013-01-26 21:00:00,
2013-01-26 15:15:00,40.8,20.6,30.00,SW,225,0.0,-999.0,44,-99.99,,,0.00,Acu-Link.com,2013-01-26 21:15:00,
2013-01-26 15:30:00,39.0,20.0,30.00,East,90,3.2,-999.0,46,-99.99,,,0.00,Acu-Link.com,2013-01-26 21:30:00,
2013-01-26 15:46:00,40.1,21.0,30.00,ESE,112,3.7,-999.0,46,-99.99,,,0.00,Acu-Link.com,2013-01-26 21:46:00,
2013-01-26 16:01:00,39.4,21.4,30.00,SE,135,2.7,-999.0,48,-99.99,,,0.00,Acu-Link.com,2013-01-26 22:01:00,
2013-01-26 16:16:00,38.8,20.8,30.00,ESE,112,3.2,-999.0,48,-99.99,,,0.00,Acu-Link.com,2013-01-26 22:16:00,
2013-01-26 16:31:00,38.5,20.5,29.99,ESE,112,1.7,-999.0,48,-99.99,,,0.00,Acu-Link.com,2013-01-26 22:31:00,
2013-01-26 16:47:00,37.9,20.5,29.99,ESE,112,3.7,-999.0,49,-99.99,,,0.00,Acu-Link.com,2013-01-26 22:47:00,
2013-01-26 17:02:00,36.7,20.3,29.99,ESE,112,2.7,-999.0,51,-99.99,,,0.00,Acu-Link.com,2013-01-26 23:02:00,
2013-01-26 17:17:00,35.8,20.4,30.00,ESE,112,3.2,-999.0,53,-99.99,,,0.00,Acu-Link.com,2013-01-26 23:17:00,
2013-01-26 17:33:00,35.1,20.2,30.00,ESE,112,2.2,-999.0,54,-99.99,,,0.00,Acu-Link.com,2013-01-26 23:33:00,
2013-01-26 17:48:00,34.2,20.6,30.01,SSE,157,1.7,-999.0,57,-99.99,,,0.00,Acu-Link.com,2013-01-26 23:48:00,
2013-01-26 18:03:00,33.8,21.0,30.02,South,180,0.0,-999.0,59,-99.99,,,0.00,Acu-Link.com,2013-01-27 00:03:00,
2013-01-26 18:19:00,33.8,21.4,30.02,ESE,112,3.7,-999.0,60,-99.99,,,0.00,Acu-Link.com,2013-01-27 00:19:00,
2013-01-26 18:34:00,33.3,21.3,30.02,South,180,2.7,-999.0,61,-99.99,,,0.00,Acu-Link.com,2013-01-27 00:34:00,
2013-01-26 18:53:00,33.1,21.1,30.02,ESE,112,2.2,-999.0,61,-99.99,,,0.00,Acu-Link.com,2013-01-27 00:53:00,
2013-01-26 19:08:00,32.5,20.9,30.02,ENE,67,3.2,-999.0,62,-99.99,,,0.00,Acu-Link.com,2013-01-27 01:08:00,
2013-01-26 19:23:00,32.2,21.0,30.02,ESE,112,3.2,-999.0,63,-99.99,,,0.00,Acu-Link.com,2013-01-27 01:23:00,
2013-01-26 19:39:00,31.6,20.5,30.01,ESE,112,2.7,-999.0,63,-99.99,,,0.00,Acu-Link.com,2013-01-27 01:39:00,
2013-01-26 19:54:00,31.1,20.4,30.01,ESE,112,2.7,-999.0,64,-99.99,,,0.00,Acu-Link.com,2013-01-27 01:54:00,
2013-01-26 20:09:00,30.7,20.7,30.01,South,180,2.7,-999.0,66,-99.99,,,0.00,Acu-Link.com,2013-01-27 02:09:00,
2013-01-26 20:25:00,30.4,20.4,30.01,ESE,112,1.7,-999.0,66,-99.99,,,0.00,Acu-Link.com,2013-01-27 02:25:00,
2013-01-26 20:40:00,29.7,20.1,30.01,East,90,2.7,-999.0,67,-99.99,,,0.00,Acu-Link.com,2013-01-27 02:40:00,
2013-01-26 20:55:00,29.7,20.5,30.01,ESE,112,0.0,-999.0,68,-99.99,,,0.00,Acu-Link.com,2013-01-27 02:55:00,
2013-01-26 21:10:00,28.9,20.4,30.01,SE,135,0.0,-999.0,70,-99.99,,,0.00,Acu-Link.com,2013-01-27 03:10:00,
2013-01-26 21:26:00,28.4,20.9,30.01,South,180,0.0,-999.0,73,-99.99,,,0.00,Acu-Link.com,2013-01-27 03:26:00,
2013-01-26 21:41:00,27.5,20.3,30.01,East,90,0.0,-999.0,74,-99.99,,,0.00,Acu-Link.com,2013-01-27 03:41:00,
2013-01-26 21:56:00,27.3,20.4,30.01,SW,225,0.0,-999.0,75,-99.99,,,0.00,Acu-Link.com,2013-01-27 03:56:00,
2013-01-26 22:12:00,26.6,20.4,30.01,SSE,157,0.0,-999.0,77,-99.99,,,0.00,Acu-Link.com,2013-01-27 04:12:00,
2013-01-26 22:27:00,26.2,20.3,30.01,South,180,0.0,-999.0,78,-99.99,,,0.00,Acu-Link.com,2013-01-27 04:27:00,
2013-01-26 22:42:00,26.6,20.7,30.02,South,180,0.0,-999.0,78,-99.99,,,0.00,Acu-Link.com,2013-01-27 04:42:00,
2013-01-26 22:58:00,26.8,20.6,30.02,East,90,0.0,-999.0,77,-99.99,,,0.00,Acu-Link.com,2013-01-27 04:58:00,
2013-01-26 23:13:00,27.3,21.1,30.02,ESE,112,1.7,-999.0,77,-99.99,,,0.00,Acu-Link.com,2013-01-27 05:13:00,
2013-01-26 23:28:00,27.3,21.1,30.01,SE,135,2.2,-999.0,77,-99.99,,,0.00,Acu-Link.com,2013-01-27 05:28:00,
2013-01-26 23:43:00,27.7,21.1,30.02,SW,225,3.2,-999.0,76,-99.99,,,0.00,Acu-Link.com,2013-01-27 05:43:00,
2013-01-26 23:59:00,28.6,22.0,30.00,East,90,3.2,-999.0,76,-99.99,,,0.00,Acu-Link.com,2013-01-27 05:59:00,